| time (UTC) | temp C | wind direction | speed KPH | gust KPH | rain 1hr cm | rain 24hr cm | rain mn cm | humidity % | barometer mb |
| 20260510094733 | 3 | 39 | 3.2 | 3.2 | 0.00 | 0.00 | 0.00 | 76 | |
| 20260510094229 | 4 | 25 | 1.6 | 4.8 | 0.00 | 0.00 | 0.00 | 76 | |
| 20260510093724 | 4 | 70 | 3.2 | 3.2 | 0.00 | 0.00 | 0.00 | 76 | |
| 20260510093222 | 4 | 10 | 1.6 | 3.2 | 0.00 | 0.00 | 0.00 | 76 | |
| 20260510092718 | 4 | 23 | 1.6 | 3.2 | 0.00 | 0.00 | 0.00 | 75 | |
| 20260510092214 | 4 | 55 | 3.2 | 4.8 | 0.00 | 0.00 | 0.00 | 75 | |
| 20260510091710 | 4 | 17 | 1.6 | 4.8 | 0.00 | 0.00 | 0.00 | 75 | |
| 20260510091206 | 4 | 46 | 1.6 | 3.2 | 0.00 | 0.00 | 0.00 | 75 | |
| 20260510090703 | 4 | 26 | 1.6 | 3.2 | 0.00 | 0.00 | 0.00 | 74 | |
| 20260510090200 | 4 | 36 | 1.6 | 8.0 | 0.00 | 0.00 | 0.00 | 75 | |
| 20260510085655 | 5 | 39 | 4.8 | 8.0 | 0.00 | 0.00 | 0.00 | 74 | |
| 20260510085150 | 5 | 31 | 4.8 | 8.0 | 0.00 | 0.00 | 0.00 | 74 | |
| 20260510084647 | 5 | 26 | 1.6 | 8.0 | 0.00 | 0.00 | 0.00 | 74 | |
| 20260510084143 | 5 | 354 | 3.2 | 9.7 | 0.00 | 0.00 | 0.00 | 73 | |
| 20260510083640 | 5 | 50 | 3.2 | 4.8 | 0.00 | 0.00 | 0.00 | 73 | |
| 20260510083137 | 5 | 39 | 4.8 | 8.0 | 0.00 | 0.00 | 0.00 | 73 | |
| 20260510082633 | 5 | 38 | 3.2 | 12.9 | 0.00 | 0.00 | 0.00 | 73 | |
| 20260510082129 | 5 | 5 | 4.8 | 9.7 | 0.00 | 0.00 | 0.00 | 73 | |
| 20260510081624 | 5 | 8 | 1.6 | 3.2 | 0.00 | 0.00 | 0.00 | 73 | |
| 20260510081120 | 5 | 21 | 0.0 | 11.3 | 0.00 | 0.00 | 0.00 | 72 | |
| 20260510080619 | 5 | 42 | 4.8 | 9.7 | 0.00 | 0.00 | 0.00 | 72 | |
| 20260510080116 | 5 | 41 | 3.2 | 8.0 | 0.00 | 0.00 | 0.00 | 72 | |
| 20260510075614 | 5 | 29 | 1.6 | 8.0 | 0.00 | 0.00 | 0.00 | 72 | |
| 20260510075111 | 5 | 33 | 3.2 | 4.8 | 0.00 | 0.00 | 0.00 | 72 | |
| 20260510074607 | 5 | 2 | 4.8 | 8.0 | 0.00 | 0.00 | 0.00 | 71 | |
| 20260510074103 | 5 | 357 | 4.8 | 9.7 | 0.00 | 0.00 | 0.00 | 71 | |
| 20260510073559 | 6 | 6 | 3.2 | 4.8 | 0.00 | 0.00 | 0.00 | 71 | |
| 20260510073057 | 6 | 10 | 4.8 | 8.0 | 0.00 | 0.00 | 0.00 | 70 | |
| 20260510072553 | 6 | 43 | 1.6 | 3.2 | 0.00 | 0.00 | 0.00 | 70 | |
| 20260510072049 | 6 | 22 | 1.6 | 4.8 | 0.00 | 0.00 | 0.00 | 70 | |
| 20260510071545 | 6 | 41 | 3.2 | 8.0 | 0.00 | 0.00 | 0.00 | 69 | |
| 20260510071044 | 6 | 22 | 1.6 | 9.7 | 0.00 | 0.00 | 0.00 | 69 | |
| 20260510070540 | 6 | 68 | 3.2 | 4.8 | 0.00 | 0.00 | 0.00 | 69 | |
| 20260510070037 | 6 | 11 | 4.8 | 11.3 | 0.00 | 0.00 | 0.00 | 68 | |
| 20260510065533 | 6 | 46 | 3.2 | 11.3 | 0.00 | 0.00 | 0.00 | 68 | |
| 20260510065029 | 7 | 338 | 3.2 | 4.8 | 0.00 | 0.00 | 0.00 | 68 | |
| 20260510064526 | 7 | 57 | 4.8 | 4.8 | 0.00 | 0.00 | 0.00 | 68 | |
| 20260510064023 | 7 | 40 | 6.4 | 8.0 | 0.00 | 0.00 | 0.00 | 67 | |
| 20260510063520 | 7 | 8 | 3.2 | 4.8 | 0.00 | 0.00 | 0.00 | 67 | |
| 20260510063017 | 7 | 65 | 1.6 | 9.7 | 0.00 | 0.00 | 0.00 | 67 | |
| 20260510062512 | 7 | 3 | 1.6 | 8.0 | 0.00 | 0.00 | 0.00 | 67 | |
| 20260510062008 | 7 | 20 | 1.6 | 9.7 | 0.00 | 0.00 | 0.00 | 68 | |
| 20260510061505 | 7 | 12 | 1.6 | 11.3 | 0.00 | 0.00 | 0.00 | 68 | |
| 20260510061001 | 7 | 15 | 1.6 | 8.0 | 0.00 | 0.00 | 0.00 | 68 | |
| 20260510060458 | 7 | 28 | 3.2 | 4.8 | 0.00 | 0.00 | 0.00 | 68 | |
| 20260510055954 | 8 | 39 | 1.6 | 3.2 | 0.00 | 0.00 | 0.00 | 66 | |
| 20260510055450 | 8 | 6 | 1.6 | 9.7 | 0.00 | 0.00 | 0.00 | 65 | |
| 20260510054948 | 8 | 9 | 1.6 | 4.8 | 0.00 | 0.00 | 0.00 | 66 | |
| 20260510054443 | 8 | 21 | 3.2 | 8.0 | 0.00 | 0.00 | 0.00 | 66 | |
| 20260510053938 | 8 | 37 | 0.0 | 4.8 | 0.00 | 0.00 | 0.00 | 67 | |
| 20260510053434 | 8 | 359 | 1.6 | 4.8 | 0.00 | 0.00 | 0.00 | 67 | |
| 20260510052931 | 8 | 46 | 1.6 | 3.2 | 0.00 | 0.00 | 0.00 | 66 | |
| 20260510052426 | 8 | 10 | 0.0 | 1.6 | 0.00 | 0.00 | 0.00 | 67 | |
| 20260510051923 | 8 | 0 | 0.0 | 0.0 | 0.00 | 0.00 | 0.00 | 67 | |
| 20260510051419 | 8 | 48 | 0.0 | 1.6 | 0.00 | 0.00 | 0.00 | 67 | |
| 20260510050916 | 8 | 18 | 3.2 | 4.8 | 0.00 | 0.00 | 0.00 | 66 | |
| 20260510050413 | 8 | 17 | 0.0 | 3.2 | 0.00 | 0.00 | 0.00 | 67 | |
| 20260510045910 | 8 | 89 | 3.2 | 4.8 | 0.00 | 0.00 | 0.00 | 67 | |
| 20260510045407 | 8 | 36 | 1.6 | 3.2 | 0.00 | 0.00 | 0.00 | 68 | |
| 20260510044904 | 9 | 30 | 1.6 | 3.2 | 0.00 | 0.00 | 0.00 | 68 | |
| 20260510044401 | 9 | 7 | 0.0 | 1.6 | 0.00 | 0.00 | 0.00 | 69 | |
| 20260510043857 | 9 | 357 | 3.2 | 8.0 | 0.00 | 0.00 | 0.00 | 67 | |
| 20260510043353 | 9 | 1 | 0.0 | 3.2 | 0.00 | 0.00 | 0.00 | 68 | |
| 20260510042851 | 9 | 31 | 0.0 | 1.6 | 0.00 | 0.00 | 0.00 | 67 | |
| 20260510042347 | 9 | 25 | 0.0 | 3.2 | 0.00 | 0.00 | 0.00 | 67 | |
| 20260510041843 | 9 | 21 | 1.6 | 4.8 | 0.00 | 0.00 | 0.00 | 65 | |
| 20260510041340 | 9 | 9 | 0.0 | 4.8 | 0.00 | 0.00 | 0.00 | 66 | |
| 20260510040838 | 9 | 52 | 0.0 | 8.0 | 0.00 | 0.00 | 0.00 | 67 | |
| 20260510040334 | 10 | 24 | 0.0 | 1.6 | 0.00 | 0.00 | 0.00 | 68 | |
| 20260510035830 | 10 | 5 | 6.4 | 9.7 | 0.00 | 0.30 | 0.30 | 67 | |
| 20260510035326 | 10 | 21 | 0.0 | 1.6 | 0.00 | 0.30 | 0.30 | 73 | |
| 20260510034822 | 10 | 10 | 1.6 | 3.2 | 0.00 | 0.30 | 0.30 | 73 | |
| 20260510034320 | 10 | 40 | 0.0 | 3.2 | 0.00 | 0.30 | 0.30 | 71 | |
| 20260510033816 | 10 | 37 | 1.6 | 4.8 | 0.00 | 0.30 | 0.30 | 69 | |
| 20260510033313 | 10 | 61 | 1.6 | 9.7 | 0.00 | 0.30 | 0.30 | 69 | |
| 20260510032810 | 10 | 9 | 3.2 | 8.0 | 0.00 | 0.30 | 0.30 | 68 | |
| 20260510032306 | 10 | 357 | 0.0 | 11.3 | 0.00 | 0.30 | 0.30 | 70 | |
| 20260510031802 | 10 | 53 | 3.2 | 4.8 | 0.00 | 0.30 | 0.30 | 70 | |
| 20260510031257 | 10 | 339 | 0.0 | 4.8 | 0.00 | 0.30 | 0.30 | 71 | |
| 20260510030751 | 10 | 26 | 0.0 | 3.2 | 0.00 | 0.30 | 0.30 | 74 | |
| 20260510030248 | 10 | 32 | 3.2 | 3.2 | 0.00 | 0.30 | 0.30 | 76 | |
| 20260510025746 | 10 | 56 | 3.2 | 8.0 | 0.00 | 0.30 | 0.30 | 77 | |
| 20260510025243 | 10 | 4 | 0.0 | 1.6 | 0.00 | 0.30 | 0.30 | 78 | |
| 20260510024739 | 10 | 32 | 1.6 | 8.0 | 0.00 | 0.30 | 0.30 | 78 | |
| 20260510024236 | 10 | 6 | 0.0 | 1.6 | 0.00 | 0.30 | 0.30 | 81 | |
| 20260510023731 | 11 | 16 | 0.0 | 3.2 | 0.00 | 0.30 | 0.30 | 84 | |
| 20260510023224 | 11 | 7 | 4.8 | 4.8 | 0.00 | 0.30 | 0.30 | 85 | |
| 20260510022720 | 11 | 6 | 0.0 | 1.6 | 0.00 | 0.30 | 0.30 | 86 | |
| 20260510022220 | 11 | 39 | 1.6 | 8.0 | 0.00 | 0.30 | 0.30 | 86 | |
| 20260510021714 | 11 | 1 | 3.2 | 4.8 | 0.00 | 0.30 | 0.30 | 86 | |
| 20260510021212 | 11 | 43 | 3.2 | 12.9 | 0.00 | 0.30 | 0.30 | 86 | |
| 20260510020708 | 12 | 75 | 8.0 | 14.5 | 0.00 | 0.30 | 0.30 | 85 | |
| 20260510020203 | 12 | 57 | 3.2 | 11.3 | 0.00 | 0.30 | 0.30 | 83 | |
| 20260510015659 | 12 | 9 | 3.2 | 3.2 | 0.00 | 0.30 | 0.30 | 84 | |
| 20260510015156 | 12 | 37 | 3.2 | 12.9 | 0.00 | 0.30 | 0.30 | 86 | |
| 20260510014655 | 12 | 358 | 0.0 | 3.2 | 0.00 | 0.30 | 0.30 | 86 | |
| 20260510014153 | 12 | 9 | 1.6 | 11.3 | 0.00 | 0.30 | 0.30 | 86 | |
| 20260510013648 | 12 | 5 | 0.0 | 12.9 | 0.00 | 0.30 | 0.30 | 87 | |
| 20260510013144 | 12 | 33 | 1.6 | 1.6 | 0.00 | 0.30 | 0.30 | 88 | |
| 20260510012644 | 11 | 16 | 1.6 | 3.2 | 0.00 | 0.30 | 0.30 | 88 | |
| 20260510012140 | 11 | 8 | 0.0 | 0.0 | 0.00 | 0.30 | 0.30 | 88 | |
| 20260510011635 | 11 | 3 | 0.0 | 3.2 | 0.00 | 0.30 | 0.30 | 89 | |
| 20260510011131 | 11 | 83 | 0.0 | 1.6 | 0.00 | 0.30 | 0.30 | 89 | |
| 20260510010627 | 11 | 31 | 0.0 | 1.6 | 0.00 | 0.30 | 0.30 | 89 | |
| 20260510010124 | 11 | 7 | 0.0 | 0.0 | 0.00 | 0.30 | 0.30 | 89 | |
| 20260510005620 | 11 | 261 | 1.6 | 3.2 | 0.00 | 0.30 | 0.30 | 89 | |
| 20260510005117 | 11 | 340 | 0.0 | 1.6 | 0.00 | 0.30 | 0.30 | 88 | |
| 20260510004615 | 11 | 128 | 1.6 | 3.2 | 0.00 | 0.30 | 0.30 | 88 | |
| 20260510004113 | 11 | 205 | 0.0 | 1.6 | 0.00 | 0.30 | 0.30 | 88 | |
| 20260510003610 | 11 | 349 | 0.0 | 1.6 | 0.00 | 0.30 | 0.30 | 87 | |
| 20260510003106 | 11 | 32 | 0.0 | 1.6 | 0.00 | 0.30 | 0.30 | 87 | |
| 20260510002600 | 12 | 296 | 4.8 | 8.0 | 0.00 | 0.30 | 0.30 | 87 | |
| 20260510002058 | 12 | 68 | 1.6 | 4.8 | 0.00 | 0.30 | 0.30 | 86 | |
| 20260510001555 | 12 | 289 | 1.6 | 3.2 | 0.00 | 0.30 | 0.30 | 86 | |
| 20260510001054 | 12 | 216 | 1.6 | 3.2 | 0.00 | 0.30 | 0.30 | 85 | |
| 20260510000548 | 12 | 130 | 1.6 | 9.7 | 0.00 | 0.30 | 0.30 | 85 | |
| 20260510000046 | 12 | 187 | 1.6 | 4.8 | 0.00 | 0.30 | 0.30 | 84 | |
| 20260509235542 | 12 | 108 | 1.6 | 3.2 | 0.00 | 0.30 | 0.30 | 84 | |
| 20260509235039 | 12 | 8 | 3.2 | 11.3 | 0.00 | 0.30 | 0.30 | 83 | |
| 20260509234534 | 12 | 69 | 4.8 | 8.0 | 0.00 | 0.30 | 0.30 | 83 | |
| 20260509234033 | 12 | 281 | 1.6 | 9.7 | 0.00 | 0.30 | 0.30 | 82 | |
| 20260509233530 | 12 | 205 | 1.6 | 3.2 | 0.00 | 0.30 | 0.30 | 82 | |
| 20260509233027 | 12 | 101 | 0.0 | 4.8 | 0.00 | 0.30 | 0.30 | 82 | |
| 20260509232524 | 12 | 133 | 3.2 | 4.8 | 0.00 | 0.30 | 0.30 | 82 | |
| 20260509232020 | 13 | 359 | 0.0 | 8.0 | 0.00 | 0.30 | 0.30 | 82 | |
| 20260509231517 | 12 | 5 | 0.0 | 8.0 | 0.00 | 0.30 | 0.30 | 82 | |
| 20260509231015 | 12 | 303 | 3.2 | 4.8 | 0.00 | 0.30 | 0.30 | 82 | |
| 20260509230511 | 13 | 273 | 6.4 | 9.7 | 0.00 | 0.30 | 0.30 | 81 | |
| 20260509230008 | 13 | 26 | 3.2 | 11.3 | 0.00 | 0.30 | 0.30 | 81 | |
| 20260509225504 | 13 | 344 | 0.0 | 4.8 | 0.00 | 0.30 | 0.30 | 80 | |
| 20260509224959 | 13 | 290 | 4.8 | 14.5 | 0.00 | 0.30 | 0.30 | 80 | |
| 20260509224455 | 13 | 164 | 4.8 | 11.3 | 0.00 | 0.30 | 0.30 | 80 | |
| 20260509223952 | 13 | 189 | 8.0 | 11.3 | 0.00 | 0.30 | 0.30 | 81 | |
| 20260509223449 | 13 | 328 | 4.8 | 12.9 | 0.00 | 0.30 | 0.30 | 83 | |
| 20260509222946 | 13 | 231 | 4.8 | 14.5 | 0.00 | 0.30 | 0.30 | 84 | |
| 20260509222442 | 13 | 216 | 11.3 | 16.1 | 0.00 | 0.30 | 0.30 | 85 | |
| 20260509221938 | 13 | 95 | 6.4 | 9.7 | 0.00 | 0.30 | 0.30 | 87 | |
| 20260509221435 | 13 | 241 | 3.2 | 16.1 | 0.00 | 0.30 | 0.30 | 87 | |
| 20260509220930 | 12 | 309 | 3.2 | 17.7 | 0.00 | 0.30 | 0.30 | 86 | |
| 20260509220426 | 12 | 225 | 11.3 | 16.1 | 0.00 | 0.30 | 0.30 | 86 | |
| 20260509215923 | 12 | 320 | 4.8 | 11.3 | 0.00 | 0.30 | 0.30 | 87 | |
| 20260509215418 | 12 | 190 | 4.8 | 11.3 | 0.00 | 0.30 | 0.30 | 88 | |
| 20260509214916 | 12 | 265 | 3.2 | 11.3 | 0.00 | 0.30 | 0.30 | 89 | |
| 20260509214413 | 12 | 256 | 8.0 | 11.3 | 0.13 | 0.30 | 0.30 | 87 | |
| 20260509213910 | 12 | 257 | 9.7 | 14.5 | 0.43 | 0.30 | 0.30 | 84 | |
| 20260509213405 | 12 | 222 | 8.0 | 14.5 | 0.89 | 0.28 | 0.28 | 85 | |
| 20260509212903 | 13 | 40 | 1.6 | 11.3 | 0.79 | 0.20 | 0.20 | 85 | |
| 20260509212401 | 14 | 120 | 3.2 | 25.7 | 0.48 | 0.10 | 0.10 | 79 | |
| 20260509211856 | 15 | 158 | 8.0 | 12.9 | 0.43 | 0.08 | 0.08 | 77 | |
| 20260509211353 | 15 | 54 | 3.2 | 8.0 | 0.13 | 0.03 | 0.03 | 77 | |
| 20260509210849 | 15 | 310 | 3.2 | 9.7 | 0.00 | 0.00 | 0.00 | 75 | |
| 20260509210347 | 15 | 264 | 0.0 | 8.0 | 0.00 | 0.00 | 0.00 | 73 | |
| 20260509205846 | 16 | 171 | 3.2 | 9.7 | 0.00 | 0.00 | 0.00 | 72 | |
| 20260509205346 | 16 | 70 | 4.8 | 17.7 | 0.00 | 0.00 | 0.00 | 68 | |
| 20260509204843 | 16 | 180 | 8.0 | 12.9 | 0.00 | 0.00 | 0.00 | 67 | |
| 20260509204334 | 16 | 70 | 1.6 | 16.1 | 0.00 | 0.00 | 0.00 | 67 | |
| 20260509203830 | 16 | 139 | 1.6 | 9.7 | 0.00 | 0.00 | 0.00 | 66 | |
| 20260509203327 | 16 | 240 | 3.2 | 11.3 | 0.00 | 0.00 | 0.00 | 64 | |
| 20260509202824 | 16 | 136 | 12.9 | 20.9 | 0.00 | 0.00 | 0.00 | 63 | |
| 20260509202320 | 17 | 262 | 6.4 | 20.9 | 0.00 | 0.00 | 0.00 | 63 | |
| 20260509201819 | 17 | 256 | 6.4 | 9.7 | 0.00 | 0.00 | 0.00 | 61 | |
| 20260509201316 | 17 | 182 | 4.8 | 14.5 | 0.00 | 0.00 | 0.00 | 60 | |
| 20260509200813 | 17 | 341 | 3.2 | 9.7 | 0.00 | 0.00 | 0.00 | 61 | |
| 20260509200308 | 17 | 246 | 3.2 | 12.9 | 0.00 | 0.00 | 0.00 | 63 | |
| 20260509195805 | 17 | 229 | 4.8 | 22.5 | 0.00 | 0.00 | 0.00 | 63 | |
| 20260509195300 | 17 | 205 | 8.0 | 16.1 | 0.00 | 0.00 | 0.00 | 62 | |
| 20260509194759 | 16 | 126 | 6.4 | 11.3 | 0.00 | 0.00 | 0.00 | 63 | |
| 20260509194256 | 16 | 277 | 8.0 | 16.1 | 0.00 | 0.00 | 0.00 | 62 | |
| 20260509193753 | 17 | 356 | 4.8 | 12.9 | 0.00 | 0.00 | 0.00 | 62 | |
| 20260509193252 | 17 | 266 | 4.8 | 20.9 | 0.00 | 0.00 | 0.00 | 60 | |
| 20260509192749 | 17 | 279 | 3.2 | 9.7 | 0.00 | 0.00 | 0.00 | 60 | |
| 20260509192244 | 17 | 243 | 9.7 | 16.1 | 0.00 | 0.00 | 0.00 | 60 | |
| 20260509191740 | 17 | 51 | 4.8 | 9.7 | 0.00 | 0.00 | 0.00 | 59 | |
| 20260509191236 | 17 | 151 | 1.6 | 12.9 | 0.00 | 0.00 | 0.00 | 58 | |
| 20260509190732 | 17 | 304 | 1.6 | 8.0 | 0.00 | 0.00 | 0.00 | 58 | |
| 20260509190230 | 17 | 294 | 11.3 | 16.1 | 0.00 | 0.00 | 0.00 | 57 | |
| 20260509185727 | 17 | 199 | 8.0 | 16.1 | 0.00 | 0.00 | 0.00 | 57 | |
| 20260509185223 | 17 | 165 | 1.6 | 9.7 | 0.00 | 0.00 | 0.00 | 56 | |
| 20260509184721 | 17 | 319 | 9.7 | 14.5 | 0.00 | 0.00 | 0.00 | 55 | |
| 20260509184218 | 18 | 6 | 4.8 | 4.8 | 0.00 | 0.00 | 0.00 | 54 | |
| 20260509183714 | 18 | 235 | 3.2 | 9.7 | 0.00 | 0.00 | 0.00 | 54 | |
| 20260509183209 | 18 | 342 | 3.2 | 16.1 | 0.00 | 0.00 | 0.00 | 55 | |
| 20260509182705 | 18 | 231 | 8.0 | 14.5 | 0.00 | 0.00 | 0.00 | 56 | |
| 20260509182203 | 18 | 49 | 6.4 | 11.3 | 0.00 | 0.00 | 0.00 | 56 | |
| 20260509181700 | 18 | 249 | 1.6 | 8.0 | 0.00 | 0.00 | 0.00 | 55 | |
| 20260509181157 | 19 | 195 | 4.8 | 12.9 | 0.00 | 0.00 | 0.00 | 53 | |
| 20260509180654 | 19 | 260 | 9.7 | 12.9 | 0.00 | 0.00 | 0.00 | 53 | |
| 20260509180150 | 18 | 274 | 4.8 | 9.7 | 0.00 | 0.00 | 0.00 | 55 | |
| 20260509175646 | 19 | 268 | 8.0 | 14.5 | 0.00 | 0.00 | 0.00 | 54 | |
| 20260509175144 | 18 | 278 | 6.4 | 14.5 | 0.00 | 0.00 | 0.00 | 56 | |
| 20260509174639 | 18 | 282 | 8.0 | 17.7 | 0.00 | 0.00 | 0.00 | 55 | |
| 20260509174134 | 18 | 267 | 4.8 | 9.7 | 0.00 | 0.00 | 0.00 | 56 | |
| 20260509173630 | 18 | 351 | 3.2 | 8.0 | 0.00 | 0.00 | 0.00 | 56 | |
| 20260509173126 | 18 | 340 | 3.2 | 9.7 | 0.00 | 0.00 | 0.00 | 57 | |
| 20260509172623 | 19 | 173 | 3.2 | 9.7 | 0.00 | 0.00 | 0.00 | 56 | |
| 20260509172119 | 18 | 76 | 8.0 | 11.3 | 0.00 | 0.00 | 0.00 | 57 | |
| 20260509171615 | 18 | 346 | 1.6 | 14.5 | 0.00 | 0.00 | 0.00 | 57 | |
| 20260509171111 | 18 | 189 | 8.0 | 16.1 | 0.00 | 0.00 | 0.00 | 57 | |
| 20260509170608 | 18 | 218 | 4.8 | 14.5 | 0.00 | 0.00 | 0.00 | 58 | |
| 20260509170104 | 18 | 220 | 3.2 | 11.3 | 0.00 | 0.00 | 0.00 | 59 | |
| 20260509165603 | 18 | 329 | 1.6 | 4.8 | 0.00 | 0.00 | 0.00 | 57 | |
| 20260509165058 | 18 | 4 | 8.0 | 14.5 | 0.00 | 0.00 | 0.00 | 60 | |
| 20260509164554 | 18 | 87 | 3.2 | 9.7 | 0.00 | 0.00 | 0.00 | 60 | |
| 20260509164050 | 18 | 311 | 0.0 | 9.7 | 0.00 | 0.00 | 0.00 | 60 | |
| 20260509163549 | 18 | 15 | 4.8 | 12.9 | 0.00 | 0.00 | 0.00 | 60 | |
| 20260509163043 | 17 | 184 | 9.7 | 12.9 | 0.00 | 0.00 | 0.00 | 60 | |
| 20260509162541 | 18 | 172 | 4.8 | 8.0 | 0.00 | 0.00 | 0.00 | 60 | |
| 20260509162036 | 18 | 58 | 4.8 | 14.5 | 0.00 | 0.00 | 0.00 | 62 | |
| 20260509161533 | 17 | 233 | 6.4 | 9.7 | 0.00 | 0.00 | 0.00 | 63 | |
| 20260509161028 | 17 | 257 | 6.4 | 9.7 | 0.00 | 0.00 | 0.00 | 63 | |
| 20260509160524 | 17 | 347 | 8.0 | 12.9 | 0.00 | 0.00 | 0.00 | 63 | |
| 20260509160020 | 17 | 356 | 3.2 | 8.0 | 0.00 | 0.00 | 0.00 | 63 | |
| 20260509155516 | 17 | 237 | 4.8 | 9.7 | 0.00 | 0.00 | 0.00 | 64 | |
| 20260509155012 | 17 | 207 | 9.7 | 14.5 | 0.00 | 0.00 | 0.00 | 65 | |
| 20260509154509 | 16 | 209 | 3.2 | 9.7 | 0.00 | 0.00 | 0.00 | 68 | |
| 20260509154007 | 16 | 276 | 3.2 | 11.3 | 0.00 | 0.00 | 0.00 | 69 | |
| 20260509153503 | 16 | 238 | 3.2 | 11.3 | 0.00 | 0.00 | 0.00 | 70 | |
| 20260509152959 | 16 | 170 | 4.8 | 9.7 | 0.00 | 0.00 | 0.00 | 72 | |
| 20260509152455 | 15 | 283 | 3.2 | 11.3 | 0.00 | 0.00 | 0.00 | 72 | |
| 20260509151952 | 15 | 269 | 4.8 | 9.7 | 0.00 | 0.00 | 0.00 | 73 | |
| 20260509151449 | 15 | 277 | 0.0 | 9.7 | 0.00 | 0.00 | 0.00 | 77 | |
| 20260509150947 | 14 | 0 | 0.0 | 3.2 | 0.00 | 0.00 | 0.00 | 80 | |
| 20260509150444 | 13 | 265 | 3.2 | 8.0 | 0.00 | 0.00 | 0.00 | 81 | |
| 20260509145942 | 13 | 330 | 0.0 | 3.2 | 0.00 | 0.00 | 0.00 | 82 | |
| 20260509145437 | 13 | 244 | 1.6 | 3.2 | 0.00 | 0.00 | 0.00 | 81 | |
| 20260509144932 | 13 | 6 | 0.0 | 4.8 | 0.00 | 0.00 | 0.00 | 81 | |
| 20260509144430 | 13 | 352 | 0.0 | 3.2 | 0.00 | 0.00 | 0.00 | 82 | |
| 20260509143927 | 13 | 267 | 1.6 | 4.8 | 0.00 | 0.00 | 0.00 | 81 | |
| 20260509143424 | 12 | 340 | 0.0 | 3.2 | 0.00 | 0.00 | 0.00 | 82 | |
| 20260509142920 | 12 | 341 | 0.0 | 4.8 | 0.00 | 0.00 | 0.00 | 82 | |
| 20260509142417 | 12 | 273 | 1.6 | 8.0 | 0.00 | 0.00 | 0.00 | 82 | |
| 20260509141912 | 12 | 300 | 3.2 | 3.2 | 0.00 | 0.00 | 0.00 | 82 | |
| 20260509141410 | 11 | 344 | 1.6 | 4.8 | 0.00 | 0.00 | 0.00 | 82 | |
| 20260509140906 | 11 | 241 | 1.6 | 3.2 | 0.00 | 0.00 | 0.00 | 82 | |
| 20260509140403 | 11 | 339 | 1.6 | 8.0 | 0.00 | 0.00 | 0.00 | 82 | |
| 20260509135901 | 11 | 332 | 0.0 | 3.2 | 0.00 | 0.00 | 0.00 | 82 | |
| 20260509135358 | 11 | 254 | 0.0 | 4.8 | 0.00 | 0.00 | 0.00 | 82 | |
| 20260509134856 | 11 | 0 | 3.2 | 8.0 | 0.00 | 0.00 | 0.00 | 81 | |
| 20260509134353 | 11 | 280 | 3.2 | 3.2 | 0.00 | 0.00 | 0.00 | 81 | |
| 20260509133850 | 10 | 333 | 1.6 | 3.2 | 0.00 | 0.00 | 0.00 | 81 | |
| 20260509133346 | 10 | 315 | 1.6 | 4.8 | 0.00 | 0.00 | 0.00 | 80 | |
| 20260509132845 | 10 | 294 | 0.0 | 3.2 | 0.00 | 0.00 | 0.00 | 79 | |
| 20260509132343 | 10 | 324 | 0.0 | 0.0 | 0.00 | 0.00 | 0.00 | 79 | |
| 20260509131840 | 10 | 341 | 0.0 | 0.0 | 0.00 | 0.00 | 0.00 | 79 | |
| 20260509131336 | 10 | 320 | 1.6 | 1.6 | 0.00 | 0.00 | 0.00 | 79 | |
| 20260509130833 | 9 | 320 | 0.0 | 0.0 | 0.00 | 0.00 | 0.00 | 80 | |
| 20260509130328 | 8 | 320 | 0.0 | 1.6 | 0.00 | 0.00 | 0.00 | 80 | |
| 20260509125825 | 8 | 315 | 0.0 | 1.6 | 0.00 | 0.00 | 0.00 | 81 | |
| 20260509125322 | 8 | 242 | 1.6 | 1.6 | 0.00 | 0.00 | 0.00 | 81 | |
| 20260509124818 | 8 | 307 | 1.6 | 1.6 | 0.00 | 0.00 | 0.00 | 81 | |
| 20260509124315 | 8 | 293 | 0.0 | 3.2 | 0.00 | 0.00 | 0.00 | 82 | |
| 20260509123814 | 8 | 192 | 1.6 | 3.2 | 0.00 | 0.00 | 0.00 | 81 | |
| 20260509123310 | 7 | 331 | 1.6 | 1.6 | 0.00 | 0.00 | 0.00 | 81 | |
| 20260509113904 | 6 | 334 | 0.0 | 0.0 | 0.00 | 0.00 | 0.00 | 80 | |
| 20260509113401 | 6 | 334 | 0.0 | 0.0 | 0.00 | 0.00 | 0.00 | 80 | |
| 20260509112857 | 6 | 169 | 0.0 | 3.2 | 0.00 | 0.00 | 0.00 | 80 | |
| 20260509112354 | 6 | 17 | 0.0 | 1.6 | 0.00 | 0.00 | 0.00 | 80 | |
| 20260509111852 | 6 | 336 | 0.0 | 3.2 | 0.00 | 0.00 | 0.00 | 81 | |
| 20260509111348 | 6 | 323 | 0.0 | 0.0 | 0.00 | 0.00 | 0.00 | 81 | |
| 20260509110846 | 6 | 351 | 0.0 | 0.0 | 0.00 | 0.00 | 0.00 | 81 | |
| 20260509110342 | 6 | 323 | 0.0 | 1.6 | 0.00 | 0.00 | 0.00 | 81 | |
| 20260509105841 | 6 | 343 | 0.0 | 0.0 | 0.00 | 0.00 | 0.00 | 81 | |
| 20260509105338 | 5 | 336 | 0.0 | 0.0 | 0.00 | 0.00 | 0.00 | 81 | |
| 20260509104835 | 5 | 358 | 0.0 | 0.0 | 0.00 | 0.00 | 0.00 | 81 | |
| 20260509104331 | 5 | 6 | 0.0 | 0.0 | 0.00 | 0.00 | 0.00 | 82 | |
| 20260509103829 | 5 | 46 | 0.0 | 0.0 | 0.00 | 0.00 | 0.00 | 82 | |
| 20260509103326 | 5 | 2 | 0.0 | 0.0 | 0.00 | 0.00 | 0.00 | 82 | |
| 20260509102825 | 5 | 1 | 0.0 | 0.0 | 0.00 | 0.00 | 0.00 | 81 | |
| 20260509102322 | 5 | 1 | 0.0 | 0.0 | 0.00 | 0.00 | 0.00 | 81 | |
| 20260509101818 | 5 | 353 | 0.0 | 0.0 | 0.00 | 0.00 | 0.00 | 81 | |
| 20260509101314 | 5 | 3 | 0.0 | 0.0 | 0.00 | 0.00 | 0.00 | 81 | |
| 20260509100812 | 5 | 8 | 0.0 | 0.0 | 0.00 | 0.00 | 0.00 | 81 | |
| 20260509100309 | 5 | 353 | 0.0 | 0.0 | 0.00 | 0.00 | 0.00 | 81 | |
| 20260509095805 | 5 | 18 | 0.0 | 0.0 | 0.00 | 0.00 | 0.00 | 81 | |
| 20260509095305 | 5 | 0 | 0.0 | 0.0 | 0.00 | 0.00 | 0.00 | 81 |